CW6575 Weather Reports


Display with metric or nautical units.
time (UTC)temp
F
wind
direction
speed
MPH
gust
MPH
rain 1hr
in
rain 24hr
in
rain mn
in
humidity
%
barometer
mb
20260505074521 47 164 2.0 5.0 0.00 0.00 0.00 87 1010.4
20260505073023 47 151 3.0 6.0 0.00 0.00 0.00 88 1010.3
20260505071539 47 150 2.0 5.0 0.00 0.00 0.00 86 1010.1
20260505070019 48 154 2.0 5.0 0.00 0.00 0.00 86 1010.1
20260505064523 47 148 4.0 6.0 0.00 0.00 0.00 88 1010.2
20260505063016 47 150 2.0 5.0 0.00 0.00 0.00 87 1010.3
20260505061513 48 150 1.0 3.0 0.00 0.00 0.00 86 1010.3
20260505060012 49 150 0.0 0.0 0.00 0.00 0.00 85 1010.3
20260505054507 49 150 0.0 3.0 0.00 0.00 0.00 84 1010.3
20260505053006 49 150 2.0 5.0 0.00 0.00 0.00 83 1010.3
20260505051507 49 142 3.0 5.0 0.00 0.00 0.00 83 1010.2
20260505041559 51 151 2.0 6.0 0.00 0.00 0.00 79 1010.0
20260505040056 51 150 2.0 5.0 0.00 0.00 0.00 78 1010.2
20260505034555 51 155 4.0 6.0 0.00 0.00 0.00 79 1010.1
20260505033055 51 180 3.0 5.0 0.00 0.00 0.00 79 1010.1
20260505031555 52 155 3.0 6.0 0.00 0.00 0.00 78 1010.2
20260505030052 53 144 3.0 6.0 0.00 0.00 0.00 77 1010.3
20260505024551 53 144 3.0 6.0 0.00 0.00 0.00 76 1010.2
20260505023057 53 152 3.0 5.0 0.00 0.00 0.00 76 1010.3
20260505021549 54 157 3.0 6.0 0.00 0.00 0.00 75 1010.3
20260505020054 55 146 3.0 6.0 0.00 0.00 0.00 73 1010.4
20260505014548 55 145 3.0 5.0 0.00 0.00 0.00 73 1010.4
20260505013049 54 152 2.0 5.0 0.00 0.00 0.00 75 1010.3
20260505011552 56 168 2.0 4.0 0.00 0.00 0.00 72 1010.2
20260505010050 56 155 2.0 5.0 0.00 0.00 0.00 71 1010.1
20260505004548 57 156 2.0 3.0 0.00 0.00 0.00 70 1010.0
20260505003047 59 156 2.0 3.0 0.00 0.00 0.00 64 1010.0
20260505001547 63 306 0.0 0.0 0.00 0.00 0.00 54 1010.1
20260505000050 65 306 0.0 2.0 0.00 0.00 0.00 50 1010.1
20260504234546 65 285 0.0 5.0 0.00 0.00 0.00 49 1010.1
20260504233045 66 295 0.0 5.0 0.00 0.00 0.00 49 1009.9
20260504231544 66 217 0.0 5.0 0.00 0.00 0.00 48 1009.8
20260504230044 67 250 1.0 4.0 0.00 0.00 0.00 47 1009.8
20260504224545 67 315 2.0 10.0 0.00 0.00 0.00 48 1009.7
20260504223043 67 331 0.0 4.0 0.00 0.00 0.00 50 1009.9
20260504221544 67 299 2.0 8.0 0.00 0.00 0.00 50 1009.9
20260504220053 65 114 0.0 3.0 0.00 0.00 0.00 58 1009.8
20260504214549 64 128 0.0 6.0 0.00 0.00 0.00 67 1010.0
20260504213048 63 164 2.0 3.0 0.00 0.00 0.00 63 1010.0
20260504211538 65 318 1.0 8.0 0.00 0.00 0.00 56 1010.1
20260504210039 67 333 5.0 10.0 0.00 0.00 0.00 46 1010.2
20260504204537 67 283 1.0 6.0 0.00 0.00 0.00 46 1009.9
20260504203036 68 360 2.0 9.0 0.00 0.00 0.00 47 1009.9
20260504201537 69 269 2.0 8.0 0.00 0.00 0.00 43 1009.8
20260504200042 71 313 2.0 10.0 0.00 0.00 0.00 40 1009.6
20260504194538 71 278 1.0 8.0 0.00 0.00 0.00 43 1009.6
20260504193032 70 295 3.0 8.0 0.00 0.00 0.00 41 1009.9
20260504191543 69 132 3.0 10.0 0.00 0.00 0.00 45 1010.1
20260504190026 69 340 1.0 8.0 0.00 0.00 0.00 47 1010.5
20260504184522 68 229 2.0 13.0 0.00 0.00 0.00 46 1010.7
20260504183036 68 335 2.0 13.0 0.00 0.00 0.00 47 1010.9
20260504181524 67 298 3.0 11.0 0.00 0.00 0.00 50 1011.0
20260504180020 67 319 2.0 8.0 0.00 0.00 0.00 52 1011.2
20260504174515 65 159 5.0 21.0 0.00 0.00 0.00 51 1011.4
20260504173008 64 155 2.0 9.0 0.00 0.00 0.00 54 1011.9
20260504171508 65 92 6.0 10.0 0.00 0.00 0.00 52 1012.0
20260504081558 48 149 2.0 5.0 0.00 0.00 0.00 59 1015.3